This is the latest recevied weather packets stored in our database for station/object K4VEB. If no packets are shown the sender has not sent any weather packets the latest 10 day(s).
| Time | Temp. | Humidity | Pressure | Rain* | Wind** | Luminosity | Snow |
|---|---|---|---|---|---|---|---|
| 1777598598 | 25° C | 76% | 1010.7 hPa | 0 mm | - | 0 W/m² | - |
| 1777598294 | 25.56° C | 76% | 1010.7 hPa | 0 mm | - | 0 W/m² | - |
| 1777597992 | 25.56° C | 75% | 1010.6 hPa | 0 mm | - | 0 W/m² | - |
| 1777597691 | 25.56° C | 75% | 1010.8 hPa | 0 mm | - | 0 W/m² | - |
| 1777597387 | 25.56° C | 74% | 1010.6 hPa | 0 mm | - | 0 W/m² | - |
| 1777597082 | 25.56° C | 74% | 1010.9 hPa | 0 mm | - | 0 W/m² | - |
| 1777596780 | 25.56° C | 73% | 1010.7 hPa | 0 mm | - | 0 W/m² | - |
| 1777596475 | 25.56° C | 73% | 1010.8 hPa | 0 mm | - | 0 W/m² | - |
| 1777596173 | 26.11° C | 72% | 1010.6 hPa | 0 mm | - | 0 W/m² | - |
| 1777595870 | 26.11° C | 72% | 1010.7 hPa | 0 mm | - | 0 W/m² | - |
| 1777595569 | 26.11° C | 71% | 1010.6 hPa | 0 mm | - | 0 W/m² | - |
| 1777595266 | 26.11° C | 70% | 1010.4 hPa | 0 mm | - | 0 W/m² | - |
| 1777594962 | 26.11° C | 69% | 1010.5 hPa | 0 mm | - | 0 W/m² | - |
| 1777594658 | 26.11° C | 69% | 1010.4 hPa | 0 mm | - | 0 W/m² | - |
| 1777594356 | 26.67° C | 69% | 1010.1 hPa | 0 mm | - | 0 W/m² | - |
| 1777594052 | 26.67° C | 69% | 1010.2 hPa | 0 mm | - | 1 W/m² | - |
| 1777593747 | 26.67° C | 68% | 1010.1 hPa | 0 mm | - | 2 W/m² | - |
| 1777593444 | 26.67° C | 67% | 1009.9 hPa | 0 mm | - | 3 W/m² | - |
| 1777593142 | 26.67° C | 67% | 1010 hPa | 0 mm | - | 4 W/m² | - |
| 1777592841 | 26.67° C | 66% | 1010 hPa | 0 mm | - | 6 W/m² | - |
| 1777592538 | 27.22° C | 65% | 1010 hPa | 0 mm | - | 8 W/m² | - |
| 1777592234 | 27.22° C | 65% | 1010 hPa | 0 mm | - | 11 W/m² | - |
| 1777591930 | 27.22° C | 64% | 1010 hPa | 0 mm | - | 20 W/m² | - |
| 1777591626 | 27.22° C | 64% | 1009.8 hPa | 0 mm | - | 29 W/m² | - |
| 1777591323 | 27.22° C | 64% | 1009.6 hPa | 0 mm | - | 37 W/m² | - |
* Rain latest hour (hover to see other rain measurements)
** Current wind speed in m/s (hover to see current wind gust speed)